Vertical_Velocity
-2 -1 2 -1 -1 0 2 -8 -5 -5 -1 -12 -2 -2 -6 -2 -2 -4 -3 -1 -0 -4 -3 -1 -3 -2 -1 -0 -1 -1 -1 -1 1 0 1 2 2 3 -1 -2 -1 -3 -4 -4
-2 -1 1 1 -1 0 -0 -1 2 3 -16 -3 -11 -0 -0 -4 0 -2 -5 -1 -0 -1 -0 -3 -1 -1 -1 -0 1 -2 -1 0 -1 -0 -1 -1 0 2 -0 1 1 2 2 1
-4 0 -1 -2 -9 -3 -2 0 -6 1 -39 -2 -5 -1 -3 -5 1 -2 -2 -2 -1 -1 -2 -2 -2 1 -4 1 1 1 0 1 -1 -1 -1 -1 -1 -1 -2 -0 -0 -1 -2 -2
-2 -3 -5 -20 -0 -2 -4 -4 0 2 -4 -2 -1 -2 -1 1 -1 -3 -1 -1 -1 1 2 -1 1 -1 2 -1 -1 -1 -2 -3 -2 -0 0 -1 -1 -0 -1 -2 -3 -3 -2 -1
-1 -0 -15 -7 1 -4 -6 -12 -5 -4 -4 -5 0 -1 -17 -3 -0 -2 -0 -1 -2 1 0 0 -2 2 -0 -0 1 -1 2 -1 -0 1 0 0 -1 0 1 2 2 2 1 -1
1 0 -2 -6 0 0 -1 -11 -1 -1 -2 -0 1 -2 -8 -1 -1 -1 -3 -2 -2 -1 -1 -2 4 3 -1 -0 -0 -4 1 2 1 -1 -2 -2 -2 -1 -0 1 -1 -2 -3 -2
-1 -0 -11 -6 -3 1 -3 -24 0 -2 -0 0 -3 -10 0 -1 -2 -2 -2 -1 1 -2 -2 1 0 -1 -7 1 -9 5 4 1 -1 -0 0 2 2 2 1 -1 -1 1 1 1
4 3 -15 -0 -3 -7 -15 -1 1 -1 -1 -3 -4 -1 -2 -0 -3 1 0 0 3 -3 -4 1 4 4 1 -7 4 0 3 0 -0 0 -0 -4 -3 -2 -2 -3 -3 -3 -4 -3
-12 -21 -4 -5 0 -1 2 2 -3 0 1 5 3 -3 2 -3 1 1 -0 -1 0 -2 -2 4 -3 -4 -4 -2 3 4 2 -1 -1 -0 -2 -1 -1 3 2 3 3 5 3 2
1 -9 -10 -1 -8 -5 4 -2 -2 3 0 8 -0 0 -6 0 -1 -0 -0 -1 1 0 -1 -2 9 3 -3 1 1 1 1 0 3 0 1 -1 -2 -3 -4 -2 1 1 1 2
-5 -11 1 -14 -2 -2 -3 2 -1 0 1 -2 5 -6 2 -1 -1 2 1 -1 -1 -1 -3 -2 -2 -2 3 2 -1 -0 3 1 -1 1 -1 2 1 4 -0 -2 -6 -7 -8 -5
-13 -18 7 -12 2 -1 2 -1 4 2 -6 -3 1 -2 5 -3 1 1 -1 3 1 -2 -4 -0 3 2 1 -1 -3 -2 -4 -3 -2 2 1 1 1 -1 -0 4 1 0 4 3
-18 1 3 -4 -16 10 -1 -7 -7 2 3 0 -0 1 2 -3 1 2 -3 -3 2 2 0 -0 -2 -2 -0 2 5 3 -0 1 2 -1 1 0 1 -1 -7 2 3 -1 0 2
-1 12 -7 -1 -12 -6 10 2 6 -3 -2 1 1 1 3 -2 -2 -1 3 4 1 -0 0 -1 -1 -1 0 -0 1 1 2 1 1 -1 1 1 -0 2 5 -2 -2 0 2 0
-7 2 -0 -2 -2 -2 1 2 -1 -4 2 -5 2 1 9 1 -0 -1 -1 -2 -2 -0 2 1 0 1 -1 -0 -0 1 0 1 4 2 2 4 2 -0 4 3 1 1 3 -2
-0 3 1 5 -6 -2 5 -2 2 -4 1 -3 0 -1 2 5 2 2 -0 -1 -1 0 -2 -1 -0 0 1 1 1 1 1 -0 1 -0 3 2 3 2 2 1 1 1 2 1
-1 -14 2 -2 2 -3 -3 1 1 -1 0 1 0 3 0 1 0 1 1 -1 -2 -0 -1 -3 -3 -0 2 0 1 -0 -1 3 1 -1 -0 3 1 -0 4 4 1 0 2 3
1 -0 3 3 -0 -0 -3 4 2 1 -2 4 -1 0 1 -1 1 1 0 1 0 1 -0 0 -2 -2 -0 -1 0 -0 -1 -0 -1 1 2 -2 1 2 0 1 0 1 3 -1
2 0 2 4 3 -0 -2 -2 1 1 1 1 0 0 2 2 1 1 1 -0 0 -2 3 0 -0 -2 -1 -1 -2 -1 2 0 0 -0 2 2 1 1 -0 0 3 4 1 -3
0 1 4 3 2 1 -0 1 -2 -1 -0 2 1 1 1 1 -0 -1 -1 1 -4 -3 1 -6 -2 -1 -1 1 1 2 0 -0 -0 0 0 -0 -0 -1 0 -0 0 0 0 0
6 3 -1 1 0 0 -0 1 -0 6 4 6 0 0 2 1 1 -2 -2 -1 -1 0 0 -3 -5 -2 -1 1 1 -0 1 1 -2 -1 -1 -0 -1 -0 0 -1 -1 -1 -0 -1
-5 7 3 -2 -2 -4 -3 -2 -4 1 -1 5 4 -1 -0 2 -3 -1 4 -3 -8 -5 -2 0 -1 -3 -3 -1 0 1 -1 0 2 -2 -1 1 1 0 1 -1 -0 -1 -1 -1
-5 -6 2 3 2 3 2 -2 -3 -2 -1 -1 2 0 -7 3 1 -7 -4 -5 1 1 -7 -4 1 -0 -1 -3 -1 1 -1 -0 -1 -1 1 -1 -1 -0 -0 -1 -0 -1 -0 0
-1 2 -0 2 0 -1 1 9 -1 3 1 1 -0 -1 -5 -2 -8 -8 2 6 -6 -3 -7 -3 -3 1 -3 -0 1 0 1 -0 -0 -0 1 -0 2 2 -1 -1 2 2 2 1
-0 -2 1 2 -1 -6 -1 -3 -5 1 0 -0 4 12 4 7 1 5 -10 -6 0 -2 -2 -11 -4 1 -1 -2 2 2 1 -0 1 1 2 2 2 2 2 -1 -1 0 -0 -1
1 2 3 2 -1 -1 0 6 -4 -5 -1 -4 -3 4 2 7 11 0 8 -3 -6 -4 -3 4 -3 -0 1 -1 -1 2 2 2 1 2 0 -1 0 1 -0 -2 -1 0 2 1
-4 0 -4 -7 -6 1 -2 -5 -7 -13 -6 -2 -10 -3 -1 6 4 4 8 7 -1 -3 -5 -4 -1 1 2 1 1 1 1 -0 -2 3 1 -1 -0 2 -2 -3 -3 -0 -1 -2
Height
1534 1530 1529 1524 1521 1523 1522 1513 1516 1483 1487 1464 1470 1470 1466 1466 1465 1464 1461 1458 1456 1457 1458 1459 1458 1458 1457 1456 1454 1452 1449 1448 1446 1444 1443 1440 1438 1436 1434 1432 1431 1431 1430 1430
1531 1523 1524 1520 1512 1511 1508 1504 1500 1490 1478 1454 1459 1464 1463 1461 1459 1457 1455 1453 1452 1452 1452 1453 1452 1452 1453 1451 1450 1449 1447 1446 1445 1443 1442 1441 1438 1437 1436 1434 1433 1432 1431 1431
1532 1523 1520 1510 1483 1486 1488 1488 1485 1494 1454 1454 1457 1457 1457 1455 1454 1451 1449 1449 1448 1447 1447 1447 1447 1448 1448 1448 1447 1446 1445 1443 1442 1441 1440 1439 1438 1436 1435 1434 1433 1432 1431 1431
1534 1527 1527 1473 1471 1473 1475 1470 1474 1468 1455 1452 1453 1451 1449 1448 1446 1443 1443 1443 1442 1441 1440 1441 1442 1442 1443 1443 1443 1442 1442 1441 1440 1439 1438 1437 1436 1435 1433 1433 1432 1432 1431 1431
1535 1535 1499 1460 1464 1470 1472 1459 1453 1456 1449 1447 1450 1449 1439 1439 1439 1438 1437 1438 1438 1436 1435 1436 1437 1438 1438 1439 1439 1438 1437 1438 1437 1436 1436 1435 1434 1433 1433 1432 1431 1431 1430 1430
1530 1537 1508 1465 1462 1462 1463 1467 1442 1446 1445 1445 1449 1453 1442 1438 1437 1436 1435 1435 1434 1433 1431 1431 1432 1432 1433 1433 1433 1433 1434 1434 1434 1433 1433 1433 1433 1432 1431 1430 1430 1429 1428 1428
1519 1520 1496 1465 1463 1463 1466 1456 1439 1440 1441 1443 1445 1440 1437 1435 1435 1434 1433 1432 1430 1429 1428 1427 1426 1426 1426 1427 1426 1428 1430 1430 1430 1430 1429 1429 1429 1429 1428 1428 1428 1428 1427 1427
1517 1515 1505 1456 1463 1465 1446 1440 1440 1439 1439 1439 1437 1435 1433 1432 1431 1430 1428 1426 1425 1423 1422 1422 1420 1419 1419 1417 1419 1421 1423 1424 1424 1425 1425 1425 1425 1425 1425 1425 1425 1425 1425 1425
1494 1476 1455 1453 1446 1445 1442 1442 1440 1439 1438 1436 1433 1430 1428 1426 1425 1424 1422 1420 1419 1417 1415 1414 1412 1412 1411 1411 1412 1413 1414 1416 1417 1418 1419 1420 1420 1420 1420 1420 1420 1421 1421 1422
1477 1446 1445 1443 1444 1442 1439 1438 1436 1433 1431 1430 1427 1423 1420 1419 1418 1417 1416 1414 1413 1410 1408 1407 1408 1406 1404 1404 1404 1405 1406 1408 1410 1411 1412 1413 1414 1414 1415 1416 1417 1418 1418 1417
1463 1440 1442 1434 1433 1432 1431 1431 1430 1428 1425 1422 1421 1417 1414 1411 1410 1410 1408 1406 1405 1402 1401 1399 1399 1398 1397 1397 1396 1397 1398 1400 1402 1403 1404 1406 1407 1407 1408 1409 1411 1411 1413 1414
1440 1432 1435 1430 1428 1427 1425 1422 1421 1421 1417 1415 1413 1409 1407 1405 1405 1404 1402 1400 1396 1395 1394 1393 1391 1389 1389 1388 1388 1388 1389 1390 1393 1394 1396 1397 1398 1401 1403 1403 1404 1405 1406 1406
1425 1429 1425 1424 1416 1417 1414 1413 1412 1410 1409 1406 1403 1400 1400 1400 1400 1398 1395 1394 1392 1389 1387 1386 1384 1383 1382 1381 1380 1379 1380 1382 1383 1384 1386 1388 1389 1390 1393 1396 1398 1399 1400 1401
1428 1426 1418 1414 1409 1406 1404 1402 1400 1399 1397 1397 1397 1395 1392 1391 1392 1392 1391 1389 1387 1385 1383 1381 1379 1378 1376 1374 1373 1372 1372 1373 1374 1376 1377 1379 1380 1382 1383 1386 1389 1391 1393 1395
1416 1416 1409 1406 1401 1396 1395 1393 1388 1386 1385 1384 1384 1386 1386 1384 1383 1385 1385 1385 1383 1382 1380 1377 1375 1374 1371 1369 1367 1366 1365 1366 1367 1368 1369 1370 1372 1374 1376 1377 1380 1383 1387 1389
1407 1404 1397 1396 1392 1386 1385 1382 1380 1376 1376 1375 1375 1374 1375 1378 1378 1378 1378 1379 1378 1376 1375 1374 1371 1369 1367 1364 1362 1361 1359 1359 1359 1360 1362 1363 1364 1365 1367 1370 1372 1374 1378 1382
1401 1395 1391 1386 1384 1380 1376 1373 1371 1370 1369 1367 1366 1367 1368 1370 1372 1373 1373 1373 1372 1372 1371 1369 1368 1366 1363 1360 1357 1355 1354 1353 1352 1352 1354 1356 1357 1359 1362 1363 1365 1368 1371 1376
1395 1391 1387 1383 1377 1373 1368 1365 1364 1363 1362 1362 1362 1362 1363 1366 1367 1369 1369 1369 1368 1368 1367 1365 1363 1362 1360 1356 1353 1350 1349 1347 1347 1347 1348 1349 1351 1353 1355 1357 1359 1362 1365 1367
1389 1387 1383 1379 1374 1367 1363 1359 1358 1358 1358 1358 1357 1359 1361 1363 1364 1365 1365 1365 1365 1364 1363 1361 1360 1358 1355 1352 1349 1346 1344 1342 1342 1343 1343 1345 1345 1348 1349 1352 1354 1356 1358 1360
1386 1386 1381 1375 1371 1365 1360 1358 1357 1356 1355 1354 1354 1356 1358 1360 1360 1362 1363 1363 1362 1361 1359 1358 1357 1355 1352 1348 1345 1342 1340 1339 1338 1339 1340 1341 1341 1343 1345 1347 1349 1351 1353 1355
1386 1383 1378 1372 1368 1365 1361 1359 1357 1356 1354 1354 1354 1355 1356 1358 1358 1359 1359 1360 1359 1358 1356 1355 1354 1352 1349 1346 1342 1340 1338 1336 1336 1337 1337 1338 1338 1339 1340 1342 1345 1347 1350 1352
1387 1383 1378 1374 1369 1364 1362 1360 1360 1360 1359 1357 1355 1354 1356 1357 1356 1356 1355 1356 1355 1354 1354 1353 1350 1347 1345 1342 1340 1337 1336 1336 1335 1335 1336 1336 1336 1336 1337 1339 1342 1344 1346 1348
1382 1381 1378 1373 1368 1364 1360 1359 1360 1360 1358 1358 1356 1353 1354 1354 1353 1353 1353 1352 1351 1350 1349 1348 1346 1343 1341 1339 1338 1336 1335 1335 1334 1335 1335 1335 1336 1336 1337 1338 1340 1341 1343 1344
1377 1375 1372 1370 1367 1364 1361 1358 1357 1357 1355 1355 1353 1349 1350 1349 1349 1348 1349 1347 1346 1345 1343 1343 1341 1339 1337 1336 1334 1334 1333 1333 1333 1334 1335 1335 1335 1334 1335 1337 1338 1339 1340 1340
1371 1369 1366 1363 1360 1357 1355 1353 1352 1350 1349 1348 1346 1345 1343 1342 1341 1342 1340 1341 1340 1338 1337 1337 1336 1335 1333 1333 1332 1331 1331 1332 1332 1332 1333 1334 1334 1333 1333 1334 1336 1336 1336 1336
1363 1361 1358 1356 1354 1351 1347 1344 1343 1342 1340 1338 1337 1336 1336 1336 1334 1333 1332 1330 1331 1332 1331 1331 1330 1329 1328 1328 1329 1328 1328 1329 1330 1330 1330 1331 1331 1331 1331 1332 1333 1334 1333 1333
1355 1353 1350 1348 1348 1346 1342 1339 1336 1333 1332 1331 1327 1325 1324 1323 1322 1323 1323 1321 1321 1322 1322 1323 1324 1322 1322 1322 1323 1324 1324 1325 1327 1327 1326 1328 1328 1327 1327 1327 1329 1329 1329 1329